Showing default

YAOGAN-39 01A, 57727

Orbit data source: Space-Track

YAOGAN-39 01A, 57727 is a payload satellite owned by PLA GAD (CN) in LEO that was launched on Thu, 31 Aug 2023 UTC via a CHANG ZHENG 2D launch vehicle from the Xichang Space Center, China (XSC). Payloads include a variety of satellites, spacecraft, and rockets equipped with specific instruments for various scientific and technological missions. These include communications satellites like Starlink; space stations such as the ISS; scientific satellites like the Hubble; Earth observation satellites from companies like Planet Labs, Umbra, and HawkEye 360; GPS; miniature CubeSats for education and research; and military/defense satellites.

Loading next visibility...
YAOGAN-39 01A details
Identifier
57727, 2023-130A
Orbit
LEO
Last TLE update8 hours ago
Origin
Flag of CNPLA GAD (CN / PRC)
ManufacturerDFH
MissionOperational Defense Sigint
Bus & MotorUnknown
Mass~300 kg wet, ~300 kg dry
Launch date (UTC)
2023-08-31 (1 year ago)
Launch vehicle
CHANG ZHENG 2D
Launch site
Xichang Space Center, China (XSC)
Object type
Payload
Rocket body
Debris
Shape & HBRBox + 2 Pan, 5 m
Radar Cross Section11.063 m², Large (>1 m²)

Expand to show TLE details & history

TLE from 8 hours ago
0 YAOGAN-39 01A
1 57727U 23130A   24356.17768139  .00026345  00000-0  10865-2 0  9991
2 57727  35.0011 303.6018 0009325 267.4750  92.4898 15.23107957 72875
Epoch: 2024-12-21T04:15Z
Definitive object data (Epoch: 2024-12-21T04:15:51.672Z)
Latitude0.00004°
Longitude149.40398°
Altitude495.664 km
Speed7.619 km/s
True Right ascension20h 14m 24s
True Declination0° 00' 00"
Sunlit
Object was in daylight at TLE epoch
Visualization TLE readout
Latitude35.14308°
Longitude-121.46305°
Altitude503.443 km
Speed7.615 km/s
Apparent Right ascension00h 57m 55s
Apparent Declination0° 45' 07"
Sunlit
Object is in full shadow
Visualization observer readout
Local Sidereal Time11:33:29
Azimuth328.537° NNW
Elevation-46.376°
Doppler factor1
Orbital elements
Apogee altitude506.136 km
Perigee altitude493.309 km
Semi-major axis6,877.86 km
Eccentricity0.0009325
Inclination35.0011°
RAAN303.6018°
Arg. of periapsis267.475°
True anomaly92.59655°
Mean anomaly92.4898°
Eccentric anomaly92.54318°
Mean motion3.80507 °/min
BSTAR0.0010865
Orbital period94.61 mins
Loading maneuver chart data...
Loading historical data...
Loading historical data...
Loading historical data...
Loading historical data...
Loading historical data...
Loading historical data...
Loading historical data...

YAOGAN-39 01A Visibility forecast

Observer location: undefined°, undefined

Span
Click to sort rows by Start time (UTC) header in descending order
Start Az.
Max El. time (UTC)
Max El. Az.
Max El.
End time (UTC)
End Az.
5 mins2024-12-22 00:58:40.995Z213.409° SW2024-12-22 01:00:40.995Z176.067° S23.02°2024-12-22 01:03:40.995Z113.459° SE
5 mins2024-12-22 02:38:40.995Z233.375° WSW2024-12-22 02:40:40.995Z173.89° S32.243°2024-12-22 02:43:40.995Z112.503° SE
5 mins2024-12-22 04:17:40.995Z244.426° WSW2024-12-22 04:19:40.995Z203.822° SW24.949°2024-12-22 04:22:40.995Z140.174° SSE
|